CZ-6A DEB

Satellite information

Favourite Embed

Satellite Type and Status

DEBRISIN ORBIT

Key statistics

Satellite CZ-6A DEB at a glance.

Uptime

907

Days in orbit

Revolutions

≈ 14.2

Per day

Orbit

SSO

Sun Synchronous Orbit

Inclination

98.8

Latest

Satellite identification and parameters

Extended collection of information and parameters for CZ-6A DEB.

Object identification

Identified? True

Debris? True

Object name: CZ-6A DEB

International designator: 2022-151RF

Object number (NORAD): 54918

Object ID (CCSDS): 54918

Country: PEOPLES REPUBLIC OF CHINA (PRC)

Current information (Y/N): Y

RCS size: SMALL

Orbital parameters

Period: 101.469 minutes

Inclination: 98.8267 deg

SMA: 7206.357 km

Apoapsis: 850.726 km

Periapsis: 805.718 km

RAAN: 137.4532 deg

Eccentricy: 0.0031228

Argument of periapsis: 34.6081 deg

Mean anomaly: 325.7119 deg

Mean motion: 14.19152498 rev/day

Mean motion (dot): 0.00003413 rev/day2

B* drag term: 0.0016433 1/REarth

Two-line elements (TLE)

Creation date: May 6, 2025, 3:54 a.m.

Reference frame: TEME

Reference center: EARTH

Epoch: May 5, 2025, 7:30 p.m. UTC

TLE line 0: 0 CZ-6A DEB

TLE line 1: 1 54918U 22151RF 25125.81295024 .00003413 00000-0 16433-2 0 9994

TLE line 2: 2 54918 98.8267 137.4532 0031228 34.6081 325.7119 14.19152498124494

Live tracking on map

Real-time ground track for satellite CZ-6A DEB.

In-orbit conjunctions

A list of the most updated potential collisions computed for object CZ-6A DEB.

Target Orbit TCA Probability of collision Miss distance Type
PEGASUS DEB LEO 2024-12-12 04:36:10 0.0001778168 87.0 (m) DEBRIS
METEOR 1-17 DEB LEO 2024-11-14 00:26:30 0.002690285 147.0 (m) DEBRIS

Associated space launch

Chinese satellite reported for atmospheric/ocean/environmental/spatial parameter research purposes, details TBD.

CZ-6A DEB was lifted into orbit during the mission ‘Long March 6A | Yunhai 3’, on board a Long March 6A space rocket.

The launch took place on Nov. 11, 2022, 10:52 p.m. from Launch Complex 9A.

For more information about the launch, click the button.

Launch to space Long March 6A | Yunhai 3
Long March 6A | Yunhai 3

Agency: N/A

Status: Launch Successful

Launch date: Nov. 11, 2022, 10:52 p.m. UTC

Rocket: Long March 6A

Launch pad: Launch Complex 9A

Location: Taiyuan Satellite Launch Center, People's Republic of China

...

Latest news about this satellite

There are no fresh news available about this satellite. Check back as we update our databases every day.


Newsletter sign-up

Weekly statistics, charts and insights to help you stay on top of the space industry.